[[{"header":{"parameterUnit":"m.s-1","parameterCategory":1,"la1":30.2991,"la2":30.254,"lo1":-89.0895,"lo2":-89.0444,"dy":0.0017,"dx":0.0017,"nx":28,"ny":28,"refTime":"2025-08-22T03:00:00:Z","depth":0,"parameterNumber":2,"parameterNumberName":"U-component_of_WINDS"},"data":[0,0,0,0,0,0,0,0,0,0,0,0,0,0,0,0,0,0,0,0,0,0,0,0,0,0,0,0,0,0,0,0,0,0,0,0,0,0,0,0,0,0,0,0,0,0,0,0,0,0,0,0,0,0,0,0,0,0,1.0194,1.0194,0,1.0241,1.0242,1.0243,1.0237,1.0236,1.0235,1.0234,1.0283,1.0285,1.0287,0,0,0,0,0,0,0,0,0,0,0,0,0,1.0098,1.01,1.0194,1.0195,1.0195,1.0241,1.0242,1.0243,1.0237,1.0236,1.0235,1.0234,1.0282,1.0285,1.0287,0,0,0,0,0,0,0,0,0,0,0,0,0,1.0142,1.0101,1.0194,1.0198,1.0199,1.0241,1.0242,1.0243,1.0237,1.0236,1.0235,1.0234,1.0281,1.0284,1.0287,1.0329,0,0,1.0297,1.0298,0,0,0,0,0,0,0,0,1.014,1.0146,1.0197,1.0198,1.0199,1.0232,1.0226,1.0272,1.0237,1.0222,1.0234,1.0233,1.0267,1.0271,1.0282,1.0331,1.0334,1.0297,1.0299,1.03,1.0301,0,0,0,0,0,0,0,1.0137,1.0144,1.0213,1.0197,1.0199,1.0197,1.0202,1.0235,1.0251,1.0224,1.0223,1.0229,1.0267,1.028,1.0284,1.0334,1.0297,1.0299,1.0301,1.0303,1.042,1.0421,0,0,0,0,0,0,1.0133,1.0141,1.0211,1.0214,1.0166,1.02,1.0205,1.0222,1.025,1.0253,1.023,1.0228,1.0275,1.028,1.0285,1.0336,1.03,1.0303,1.0305,1.0419,1.042,1.0422,0,0,0,0,0,0,1.0131,1.0139,1.0209,1.0178,1.0186,1.0203,1.0222,1.0224,1.0236,1.0255,1.0258,1.024,1.0274,1.0281,1.0318,1.0338,1.0304,1.0307,1.0417,1.0419,1.0421,1.0438,0,0,0,0,0,0,1.0128,1.0138,1.0154,1.0178,1.0188,1.0242,1.0223,1.0226,1.0242,1.024,1.0265,1.0268,1.0274,1.0314,1.0321,1.0341,1.0309,1.0416,1.0418,1.0421,1.0436,1.044,1.0444,0,0,0,0,0,1.0125,1.0157,1.0155,1.0164,1.0208,1.0243,1.0249,1.0255,1.0243,1.0259,1.0271,1.0267,1.0334,1.0318,1.0326,1.0347,1.0414,1.0417,1.042,1.0434,1.0439,1.0444,0,0,0,0,0,0,1.0135,1.016,1.0158,1.0199,1.0219,1.0242,1.0262,1.026,1.0284,1.0281,1.0288,1.0294,1.0332,1.0343,1.0324,1.0389,1.0373,1.0378,1.038,1.0386,1.039,1.0386,1.0312,0,0,0,0,0,1.0142,1.0168,1.0188,1.0223,1.0233,1.0246,1.0261,1.0264,1.0285,1.0293,1.0308,1.0328,1.0353,1.037,1.0395,1.0438,1.0443,1.0456,1.046,1.0464,1.0468,1.0491,1.0497,1.0432,1.0432,1.0431,0,0,1.0157,1.0174,1.0189,1.0225,1.0241,1.0267,1.0253,1.0281,1.0301,1.0297,1.0333,1.0345,1.0368,1.0408,1.0426,1.0419,1.0487,1.0467,1.047,1.0472,1.0495,1.0501,1.0506,1.0434,1.0433,1.0433,0,0,1.0197,1.0213,1.0243,1.0259,1.0283,1.0292,1.0299,1.0322,1.033,1.0366,1.0364,1.0387,1.0432,1.0448,1.0462,1.0509,1.0506,1.0517,1.0539,1.0562,1.0567,1.0571,1.0588,1.0594,1.0521,1.0521,1.0521,0,1.0212,1.0252,1.0259,1.0288,1.0304,1.0302,1.0333,1.0348,1.0378,1.0389,1.038,1.0436,1.0451,1.0495,1.0507,1.0518,1.0527,1.0514,1.0566,1.057,1.0575,1.0591,1.0597,1.0523,1.0522,1.0522,1.0522,0,1.027,1.0298,1.0319,1.0349,1.0368,1.0397,1.0409,1.0426,1.0428,1.0438,1.0475,1.0493,1.0522,1.0533,1.0535,1.0577,1.0571,1.0564,1.0548,1.0582,1.0597,1.0603,1.0524,1.0524,1.0523,1.0523,0,0,1.0317,1.0351,1.0359,1.0373,1.0399,1.0421,1.0451,1.0479,1.0494,1.0515,1.054,1.0578,1.0571,1.0587,1.0591,1.0611,1.0647,1.0601,1.0602,1.0609,1.0695,1.07,1.0707,1.0645,1.0647,1.0648,1.0693,0,1.036,1.0413,1.042,1.0467,1.0493,1.0492,1.0518,1.0537,1.0547,1.057,1.0581,1.0608,1.0597,1.0607,1.0626,1.0639,1.0665,1.0636,1.0669,1.067,1.0663,1.0715,1.072,1.0762,1.0699,1.07,1.0701,0,1.0417,1.0441,1.049,1.0513,1.0524,1.0548,1.0574,1.0596,1.0618,1.0624,1.0642,1.0644,1.0674,1.0657,1.07,1.068,1.0694,1.0702,1.0704,1.0707,1.0687,1.0719,1.0776,1.0782,1.071,1.0709,1.0709,0,1.0447,1.0491,1.0526,1.0538,1.0566,1.0582,1.0595,1.0615,1.0632,1.0655,1.0665,1.0692,1.0706,1.0726,1.0735,1.0721,1.0777,1.076,1.0782,1.0782,1.0794,1.0793,1.0853,1.0803,1.0803,1.0803,1.0803,0,1.0494,1.0524,1.054,1.0561,1.0595,1.0603,1.0637,1.0648,1.0667,1.0691,1.0691,1.0714,1.0724,1.0748,1.0755,1.0789,1.0795,1.0801,1.0802,1.08,1.08,1.0809,1.0806,1.0805,1.0804,1.0804,1.0804,0,1.0532,1.0544,1.0582,1.0606,1.0613,1.0637,1.0657,1.0678,1.0688,1.0718,1.0726,1.0741,1.0769,1.078,1.0814,1.0819,1.0858,1.0858,1.0851,1.0851,1.0872,1.087,1.0941,1.095,1.0895,1.0895,1.0896,0,1.0561,1.0584,1.0611,1.0627,1.064,1.0666,1.0683,1.0692,1.071,1.0736,1.0754,1.0782,1.0805,1.085,1.0865,1.0891,1.089,1.0913,1.0894,1.0892,1.089,1.0889,1.0891,1.0917,1.0917,1.0918,1.0918,0,1.0611,1.0616,1.064,1.0667,1.0687,1.0709,1.073,1.0743,1.0755,1.0775,1.0804,1.0822,1.0857,1.0885,1.0912,1.0924,1.0923,1.0924,1.093,1.0929,1.0924,1.0926,1.086,1.0922,1.0922,1.0922,1.0921,1.0921,1.0645,1.0666,1.0688,1.0715,1.0732,1.0752,1.0773,1.0785,1.081,1.0839,1.0843,1.0874,1.0896,1.0932,1.0946,1.097,1.0964,1.0973,1.0976,1.0978,1.0979,1.092,1.0975,1.0975,1.0975,1.0975,1.0975,0,1.0695,1.0709,1.0734,1.0764,1.0785,1.0783,1.0806,1.0824,1.0852,1.0872,1.0895,1.0928,1.0955,1.0972,1.0999,1.1015,1.1015,1.1022,1.102,1.1023,1.0983,1.0975,1.1021,1.1021,1.1021,1.1021,1.1021,1.1021,1.0723,1.0758,1.0766,1.0809,1.0823,1.0854,1.0867,1.0885,1.0901,1.0939,1.0961,1.0972,1.0991,1.102,1.1044,1.1048,1.1058,1.1065,1.1069,1.1031,1.1026,1.1021,1.1014,1.1067,1.1068,1.1107,1.1107,1.1107]},{"header":{"parameterUnit":"m.s-1","parameterCategory":1,"la1":30.2991,"la2":30.254,"lo1":-89.0895,"lo2":-89.0444,"dy":0.0017,"dx":0.0017,"nx":28,"ny":28,"refTime":"2025-08-22T03:00:00:Z","depth":0,"parameterNumber":3,"parameterNumberName":"V-component_of_WINDS"},"data":[0,0,0,0,0,0,0,0,0,0,0,0,0,0,0,0,0,0,0,0,0,0,0,0,0,0,0,0,0,0,0,0,0,0,0,0,0,0,0,0,0,0,0,0,0,0,0,0,0,0,0,0,0,0,0,0,0,0,4.0098,4.0099,0,4.0148,4.0148,4.0149,4.0181,4.0181,4.0182,4.0182,4.0228,4.0229,4.0231,0,0,0,0,0,0,0,0,0,0,0,0,0,4.0025,4.0026,4.0098,4.0099,4.01,4.0148,4.0148,4.0149,4.0181,4.0181,4.0182,4.0182,4.0228,4.0229,4.0231,0,0,0,0,0,0,0,0,0,0,0,0,0,4.0064,4.0026,4.0098,4.0121,4.0124,4.0148,4.0148,4.0149,4.0181,4.0181,4.0182,4.0182,4.0228,4.0229,4.0231,4.0234,0,0,4.0236,4.0236,0,0,0,0,0,0,0,0,4.0061,4.0066,4.0117,4.012,4.0123,4.0159,4.014,4.0178,4.0181,4.0159,4.0182,4.0182,4.0205,4.0208,4.0217,4.0236,4.0238,4.0236,4.0237,4.0237,4.0238,0,0,0,0,0,0,0,4.0059,4.0064,4.0118,4.0118,4.0121,4.0127,4.0133,4.0147,4.0179,4.0161,4.0164,4.0169,4.0206,4.0215,4.0218,4.0239,4.0236,4.0237,4.0238,4.0239,4.026,4.026,0,0,0,0,0,0,4.0053,4.0062,4.0116,4.0119,4.0092,4.0128,4.0135,4.0147,4.0179,4.0185,4.0169,4.0171,4.0212,4.0216,4.022,4.0224,4.0237,4.0239,4.024,4.026,4.026,4.0259,0,0,0,0,0,0,4.0051,4.0058,4.0114,4.0091,4.0099,4.0129,4.0142,4.0148,4.0157,4.0185,4.0191,4.0173,4.0213,4.0218,4.023,4.0226,4.024,4.0241,4.0261,4.026,4.026,4.0233,0,0,0,0,0,0,4.0049,4.0057,4.006,4.0091,4.01,4.0125,4.0142,4.0148,4.016,4.0162,4.019,4.0195,4.0213,4.0227,4.0231,4.0228,4.0242,4.0261,4.026,4.026,4.0234,4.0232,4.0229,0,0,0,0,0,4.0046,4.0051,4.006,4.0067,4.0105,4.0125,4.013,4.0152,4.0159,4.0162,4.0179,4.0194,4.0226,4.0228,4.0233,4.023,4.0262,4.0261,4.026,4.0235,4.0232,4.0229,0,0,0,0,0,0,4.0018,4.0055,4.0066,4.0081,4.01,4.0131,4.0135,4.0148,4.0165,4.0166,4.0191,4.0197,4.0206,4.022,4.0222,4.0233,4.0245,4.0245,4.0225,4.0222,4.0219,4.0216,4.0243,0,0,0,0,0,4.0014,4.0029,4.006,4.0069,4.0078,4.0104,4.0114,4.0129,4.0149,4.0157,4.0176,4.0193,4.0206,4.0215,4.0229,4.0236,4.0241,4.0236,4.0234,4.0231,4.0231,4.0233,4.023,4.0257,4.0257,4.0257,0,0,4.0005,4.0027,4.0035,4.0064,4.008,4.0093,4.0111,4.0124,4.0133,4.0158,4.0171,4.0185,4.0206,4.0214,4.0219,4.0226,4.0225,4.023,4.0228,4.0229,4.0231,4.0229,4.0227,4.0256,4.0256,4.0256,0,0,3.9995,4.0014,4.0023,4.0038,4.0062,4.0079,4.0081,4.0109,4.0119,4.0133,4.0151,4.016,4.0184,4.0197,4.0207,4.0197,4.021,4.0201,4.0188,4.0189,4.0187,4.0185,4.0179,4.0177,4.0201,4.02,4.02,0,3.998,4.0002,4.0025,4.0037,4.0048,4.0071,4.0079,4.0092,4.0119,4.0125,4.0132,4.016,4.0176,4.0187,4.0184,4.0192,4.0193,4.0198,4.0185,4.0184,4.0182,4.0177,4.0176,4.0199,4.0199,4.0199,4.02,0,3.9981,3.9995,3.9999,4.0025,4.0036,4.0045,4.0068,4.0076,4.0089,4.0105,4.0116,4.0135,4.0152,4.0156,4.0169,4.0167,4.017,4.0181,4.0193,4.0178,4.0174,4.0172,4.0197,4.0198,4.0198,4.0198,0,0,3.9957,3.9993,3.9994,4.0005,4.0031,4.0042,4.005,4.0068,4.0073,4.009,4.0096,4.0114,4.0123,4.0134,4.0148,4.0149,4.0137,4.0159,4.016,4.0153,4.0133,4.0125,4.0122,4.0146,4.0146,4.0145,4.0131,0,3.995,3.9969,3.9989,3.9999,4.0011,4.0031,4.0038,4.0054,4.0067,4.0077,4.0091,4.0103,4.0115,4.0121,4.0123,4.0138,4.0133,4.014,4.015,4.015,4.0144,4.012,4.0112,4.0098,4.013,4.013,4.0129,0,3.9946,3.9961,3.9973,3.9995,4.0,4.0007,4.0022,4.0032,4.0048,4.0058,4.0068,4.0083,4.009,4.0101,4.011,4.0113,4.0118,4.0126,4.0126,4.0127,4.0139,4.012,4.0094,4.0092,4.0127,4.0128,4.0128,0,3.9925,3.9948,3.9957,3.9966,3.9993,3.9996,4.0007,4.0024,4.0032,4.0044,4.0049,4.0062,4.0069,4.0078,4.0095,4.0101,4.0101,4.0114,4.0107,4.0106,4.0106,4.0106,4.008,4.0111,4.0111,4.0111,4.0111,0,3.9915,3.9921,3.9948,3.9954,3.996,3.9981,3.9985,3.9998,4.0012,4.0018,4.0036,4.0042,4.0064,4.0071,4.0084,4.0088,4.0091,4.0097,4.0101,4.0096,4.0094,4.0099,4.01,4.011,4.011,4.0111,4.0111,0,3.9893,3.9912,3.9923,3.9947,3.9952,3.9955,3.9974,3.9979,3.9992,4.0,4.0003,4.0023,4.0032,4.005,4.0064,4.0072,4.0072,4.0079,4.0067,4.0069,4.0061,4.0061,4.0036,4.0033,4.0067,4.0066,4.0066,0,3.9886,3.9891,3.9913,3.9919,3.9929,3.9939,3.9946,3.9966,3.9972,3.9989,3.9991,4.0002,4.0011,4.0024,4.0039,4.0049,4.0055,4.0045,4.0056,4.005,4.0053,4.0052,4.0051,4.0043,4.0042,4.0042,4.0042,0,3.9869,3.9877,3.9889,3.9901,3.991,3.9921,3.9933,3.9936,3.9957,3.9963,3.9973,3.998,3.9993,4.0002,4.0014,4.0023,4.0035,4.0038,4.0036,4.0031,4.0023,4.0025,4.0059,4.0038,4.0039,4.0039,4.0039,4.0039,3.9854,3.9858,3.9874,3.9884,3.9894,3.9904,3.9909,3.9921,3.993,3.9942,3.9953,3.996,3.9973,3.999,3.9997,4.0002,4.0008,4.0007,4.0007,4.0006,4.0002,4.0023,4.0005,4.0005,4.0005,4.0005,4.0005,0,3.9837,3.9847,3.9857,3.9872,3.9879,3.9889,3.9902,3.9907,3.9913,3.9925,3.9933,3.9941,3.9949,3.9964,3.9972,3.9973,3.9978,3.9975,3.9974,3.9976,3.9998,3.9997,3.997,3.997,3.997,3.997,3.997,3.997,3.9829,3.9836,3.9845,3.9855,3.9865,3.9872,3.9878,3.9886,3.9895,3.9904,3.991,3.9919,3.9931,3.994,3.9946,3.995,3.9952,3.9946,3.9951,3.9971,3.9974,3.9978,3.9977,3.9946,3.9946,3.9929,3.9928,3.9928]}]]